Hourly Data Report for September 17, 2017

All times are specified in Local Standard Time (LST). Add 1 hour to adjust for Daylight Saving Time where and when it is observed.

CAPE DORSET A
NUNAVUT

64°13'49.000" N
76°31'30.000" W
48.20 m
2400637
71366
YTE

Download Data

Hourly Data (September 2017)
Hourly Data Report for September 17, 2017
Temp Definition
°C
Dew Point Temp Definition
°C
Rel Hum Definition
%
Wind Dir Definition
10's deg

Wind Spd Definition
km/h
Visibility Definition
km
Stn Press Definition
kPa
Hmdx Definition


Wind Chill Definition


Weather Definition


TIME
00:00 Legend Double Dagger 1.1 -0.8 87 28 17 16.1 101.22     LegendNANA
01:00 Legend Double Dagger 0.6 -0.9 90 27 17 16.1 101.24     LegendNANA
02:00 Legend Double Dagger 0.5 -1.3 88 28 9 16.1 101.30     LegendNANA
03:00 Legend Double Dagger 0.4 -1.5 87 27 8 16.1 101.34     LegendNANA
04:00 Legend Double Dagger 0.0 -1.5 90 27 8 16.1 101.36   -3 LegendNANA
05:00 Legend Double Dagger 0.7 -1.5 85 27 9 16.1 101.40     LegendNANA
06:00 Legend Double Dagger 1.1 -1.1 86 27 15 16.1 101.43     LegendNANA
07:00 Legend Double Dagger 1.2 -0.7 87 29 17 16.1 101.47     LegendNANA
08:00 Legend Double Dagger 1.8 -0.3 86 25 17 16.1 101.51     LegendNANA
09:00 Legend Double Dagger 3.4 0.5 81 26 13 16.1 101.54     LegendNANA
10:00 Legend Double Dagger 3.2 0.9 85 26 9 16.1 101.53     LegendNANA
11:00 Legend Double Dagger 3.1 1.3 88 25 15 16.1 101.54     LegendNANA
12:00 Legend Double Dagger 4.5 1.5 81 23 15 16.1 101.54     LegendNANA
13:00 Legend Double Dagger 4.5 1.0 78 23 21 16.1 101.55     LegendNANA
14:00 Legend Double Dagger 3.6 1.2 84 22 26 16.1 101.58     LegendNANA
15:00 Legend Double Dagger 3.7 1.1 83 22 28 16.1 101.57     LegendNANA
16:00 Legend Double Dagger 4.0 1.2 82 23 26 16.1 101.59     LegendNANA
17:00 Legend Double Dagger 4.8 0.3 73 25 18 16.1 101.59     LegendNANA
18:00 Legend Double Dagger 3.6 0.6 81 25 24 16.1 101.61     LegendNANA
19:00 Legend Double Dagger 2.4 0.6 88 24 21 16.1 101.61     LegendNANA
20:00 Legend Double Dagger 2.1 0.8 91 29 11 16.1 101.64     LegendNANA
21:00 Legend Double Dagger 2.0 0.7 91 24 15 16.1 101.65     LegendNANA
22:00 Legend Double Dagger 2.1 0.5 89 26 11 16.1 101.64     LegendNANA
23:00 Legend Double Dagger 1.2 0.5 95 24 13 16.1 101.62     LegendNANA

Notes on Data Quality.

Legend

  • E = Estimated
  • M = Missing
  • NA = Not Available
  • ‡ = Partner data that is not subject to review by the National Climate Archives
Date modified: